| time (UTC) | temp F | wind direction | speed knots | gust knots | rain 1hr in | rain 24hr in | rain mn in | humidity % | barometer mb |
| 20260504173618 | 43 | 308 | 6.1 | 8.7 | 0.00 | 0.00 | 0.00 | 86 | 1013.7 |
| 20260504173552 | 43 | 303 | 5.2 | 7.0 | 0.00 | 0.00 | 0.00 | 86 | 1013.7 |
| 20260504173034 | 43 | 265 | 3.5 | 5.2 | 0.00 | 0.00 | 0.00 | 87 | 1013.0 |
| 20260504172545 | 42 | 282 | 5.2 | 7.8 | 0.00 | 0.00 | 0.00 | 87 | 1014.0 |
| 20260504172524 | 42 | 286 | 4.3 | 6.1 | 0.00 | 0.00 | 0.00 | 87 | 1013.7 |
| 20260504172215 | 42 | 290 | 6.1 | 8.7 | 0.00 | 0.00 | 0.00 | 86 | 1013.0 |
| 20260504171628 | 42 | 287 | 4.3 | 7.8 | 0.00 | 0.00 | 0.00 | 86 | 1013.7 |
| 20260504171533 | 42 | 289 | 5.2 | 7.0 | 0.00 | 0.00 | 0.00 | 86 | 1013.7 |
| 20260504171033 | 42 | 316 | 4.3 | 8.7 | 0.00 | 0.00 | 0.00 | 88 | 1013.0 |
| 20260504170540 | 42 | 321 | 3.5 | 7.8 | 0.00 | 0.00 | 0.00 | 89 | 1013.7 |
| 20260504170529 | 42 | 320 | 4.3 | 7.8 | 0.00 | 0.00 | 0.00 | 89 | 1013.7 |
| 20260504170109 | 41 | 254 | 3.5 | 6.1 | 0.00 | 0.00 | 0.00 | 90 | 1013.0 |
| 20260504151054 | 38 | 319 | 3.5 | 4.3 | 0.00 | 0.00 | 0.00 | 91 | 1013.0 |
| 20260504150556 | 39 | 341 | 2.6 | 3.5 | 0.00 | 0.00 | 0.00 | 91 | 1013.7 |
| 20260504150518 | 39 | 326 | 2.6 | 4.3 | 0.00 | 0.00 | 0.00 | 90 | 1014.0 |
| 20260504141040 | 40 | 269 | 1.7 | 3.5 | 0.00 | 0.00 | 0.00 | 79 | 1013.0 |
| 20260504140633 | 40 | 226 | 2.6 | 4.3 | 0.00 | 0.00 | 0.00 | 77 | 1013.7 |
| 20260504140522 | 40 | 236 | 2.6 | 4.3 | 0.00 | 0.00 | 0.00 | 77 | 1014.0 |
| 20260504130627 | 41 | 338 | 1.7 | 2.6 | 0.00 | 0.00 | 0.00 | 66 | 1013.7 |
| 20260504130526 | 41 | 334 | 1.7 | 3.5 | 0.00 | 0.00 | 0.00 | 66 | 1014.0 |
| 20260504110554 | 40 | 97 | 2.6 | 3.5 | 0.00 | 0.00 | 0.00 | 63 | 1014.0 |
| 20260504110533 | 40 | 95 | 3.5 | 4.3 | 0.00 | 0.00 | 0.00 | 62 | 1014.3 |
| 20260504100555 | 35 | 103 | 2.6 | 4.3 | 0.00 | 0.00 | 0.00 | 75 | 1014.3 |
| 20260504100528 | 35 | 102 | 2.6 | 3.5 | 0.00 | 0.00 | 0.00 | 75 | 1014.0 |
| 20260504081615 | 33 | 100 | 3.5 | 4.3 | 0.00 | 0.00 | 0.00 | 77 | 1014.3 |
| 20260504081522 | 33 | 106 | 2.6 | 3.5 | 0.00 | 0.00 | 0.00 | 77 | 1014.3 |
| 20260504081025 | 33 | 106 | 2.6 | 4.3 | 0.00 | 0.00 | 0.00 | 77 | 1013.7 |
| 20260504080602 | 33 | 109 | 3.5 | 4.3 | 0.00 | 0.00 | 0.00 | 78 | 1014.3 |
| 20260504080527 | 33 | 106 | 3.5 | 4.3 | 0.00 | 0.00 | 0.00 | 78 | 1014.3 |
| 20260504050538 | 39 | 87 | 2.6 | 3.5 | 0.00 | 0.00 | 0.00 | 64 | 1015.0 |
| 20260504050521 | 39 | 88 | 2.6 | 5.2 | 0.00 | 0.00 | 0.00 | 64 | 1015.0 |
| 20260504050023 | 39 | 125 | 2.6 | 5.2 | 0.00 | 0.00 | 0.00 | 63 | 1014.3 |
| 20260504045600 | 39 | 68 | 2.6 | 3.5 | 0.00 | 0.00 | 0.00 | 63 | 1015.0 |
| 20260504045526 | 39 | 68 | 2.6 | 3.5 | 0.00 | 0.00 | 0.00 | 63 | 1015.0 |
| 20260504045019 | 40 | 45 | 2.6 | 3.5 | 0.00 | 0.00 | 0.00 | 60 | 1014.3 |
| 20260504044606 | 39 | 47 | 1.7 | 2.6 | 0.00 | 0.00 | 0.00 | 61 | 1015.0 |
| 20260504044531 | 39 | 39 | 1.7 | 2.6 | 0.00 | 0.00 | 0.00 | 61 | 1015.4 |
| 20260504044045 | 39 | 33 | 2.6 | 3.5 | 0.00 | 0.00 | 0.00 | 63 | 1014.3 |
| 20260504043553 | 40 | 48 | 2.6 | 2.6 | 0.00 | 0.00 | 0.00 | 63 | 1015.0 |
| 20260504043527 | 40 | 46 | 2.6 | 2.6 | 0.00 | 0.00 | 0.00 | 63 | 1015.4 |
| 20260504043029 | 40 | 45 | 1.7 | 3.5 | 0.00 | 0.00 | 0.00 | 63 | 1014.3 |
| 20260504042532 | 40 | 45 | 2.6 | 3.5 | 0.00 | 0.00 | 0.00 | 64 | 1015.4 |
| 20260504042523 | 40 | 43 | 2.6 | 3.5 | 0.00 | 0.00 | 0.00 | 64 | 1015.4 |
| 20260504042025 | 40 | 40 | 2.6 | 2.6 | 0.00 | 0.00 | 0.00 | 64 | 1014.7 |
| 20260504041519 | 39 | 59 | 2.6 | 3.5 | 0.00 | 0.00 | 0.00 | 67 | 1015.4 |
| 20260504041030 | 40 | 54 | 2.6 | 4.3 | 0.00 | 0.00 | 0.00 | 65 | 1014.3 |
| 20260504040533 | 40 | 55 | 2.6 | 3.5 | 0.00 | 0.00 | 0.00 | 65 | 1015.4 |
| 20260504040525 | 40 | 54 | 2.6 | 3.5 | 0.00 | 0.00 | 0.00 | 65 | 1015.4 |
| 20260504040027 | 40 | 52 | 2.6 | 3.5 | 0.00 | 0.00 | 0.00 | 64 | 1014.7 |
| 20260504035604 | 41 | 48 | 2.6 | 2.6 | 0.00 | 0.00 | 0.00 | 64 | 1015.4 |
| 20260504035521 | 41 | 50 | 1.7 | 2.6 | 0.00 | 0.00 | 0.00 | 63 | 1015.4 |
| 20260504035023 | 41 | 47 | 1.7 | 3.5 | 0.00 | 0.00 | 0.00 | 64 | 1014.7 |
| 20260504034653 | 41 | 19 | 0.9 | 1.7 | 0.00 | 0.00 | 0.00 | 65 | 1015.4 |
| 20260504034534 | 41 | 20 | 0.9 | 2.6 | 0.00 | 0.00 | 0.00 | 65 | 1015.4 |
| 20260504034019 | 41 | 41 | 0.9 | 2.6 | 0.00 | 0.00 | 0.00 | 63 | 1014.7 |
| 20260504033619 | 41 | 42 | 0.9 | 2.6 | 0.00 | 0.00 | 0.00 | 62 | 1015.4 |
| 20260504033531 | 41 | 38 | 0.9 | 2.6 | 0.00 | 0.00 | 0.00 | 62 | 1015.4 |
| 20260504033024 | 42 | 14 | 0.9 | 2.6 | 0.00 | 0.00 | 0.00 | 60 | 1014.7 |
| 20260504032545 | 42 | 324 | 1.7 | 1.7 | 0.00 | 0.00 | 0.00 | 59 | 1015.4 |
| 20260504032527 | 42 | 341 | 1.7 | 2.6 | 0.00 | 0.00 | 0.00 | 58 | 1015.4 |
| 20260504032113 | 42 | 310 | 1.7 | 2.6 | 0.00 | 0.00 | 0.00 | 59 | 1014.7 |
| 20260504031540 | 42 | 304 | 0.9 | 2.6 | 0.00 | 0.00 | 0.00 | 60 | 1015.4 |
| 20260504031523 | 42 | 312 | 0.9 | 2.6 | 0.00 | 0.00 | 0.00 | 60 | 1015.4 |
| 20260504031034 | 41 | 248 | 0.9 | 2.6 | 0.00 | 0.00 | 0.00 | 61 | 1014.7 |
| 20260504030621 | 41 | 330 | 1.7 | 2.6 | 0.00 | 0.00 | 0.00 | 58 | 1015.4 |
| 20260504030519 | 41 | 323 | 0.9 | 2.6 | 0.00 | 0.00 | 0.00 | 58 | 1015.4 |
| 20260504030042 | 41 | 43 | 1.7 | 2.6 | 0.00 | 0.00 | 0.00 | 56 | 1014.7 |
| 20260504025714 | 41 | 60 | 2.6 | 3.5 | 0.00 | 0.00 | 0.00 | 56 | 1015.4 |
| 20260504025524 | 41 | 59 | 2.6 | 3.5 | 0.00 | 0.00 | 0.00 | 56 | 1015.4 |
| 20260504025048 | 41 | 62 | 2.6 | 3.5 | 0.00 | 0.00 | 0.00 | 56 | 1014.3 |
| 20260504024520 | 41 | 71 | 1.7 | 1.7 | 0.00 | 0.00 | 0.00 | 56 | 1015.4 |
| 20260504024124 | 41 | 56 | 2.6 | 3.5 | 0.00 | 0.00 | 0.00 | 57 | 1014.3 |
| 20260504023525 | 41 | 65 | 2.6 | 3.5 | 0.00 | 0.00 | 0.00 | 57 | 1015.4 |
| 20260504023059 | 41 | 66 | 2.6 | 3.5 | 0.00 | 0.00 | 0.00 | 56 | 1014.3 |
| 20260504022712 | 41 | 72 | 2.6 | 2.6 | 0.00 | 0.00 | 0.00 | 57 | 1015.4 |
| 20260504022540 | 41 | 74 | 2.6 | 2.6 | 0.00 | 0.00 | 0.00 | 57 | 1015.4 |
| 20260504022024 | 41 | 72 | 2.6 | 3.5 | 0.00 | 0.00 | 0.00 | 57 | 1014.7 |
| 20260504021555 | 41 | 70 | 2.6 | 2.6 | 0.00 | 0.00 | 0.00 | 56 | 1015.4 |
| 20260504021527 | 41 | 69 | 2.6 | 3.5 | 0.00 | 0.00 | 0.00 | 56 | 1015.4 |
| 20260504021055 | 42 | 71 | 2.6 | 3.5 | 0.00 | 0.00 | 0.00 | 55 | 1014.7 |
| 20260504020523 | 42 | 72 | 2.6 | 2.6 | 0.00 | 0.00 | 0.00 | 54 | 1015.4 |
| 20260504020026 | 42 | 59 | 2.6 | 3.5 | 0.00 | 0.00 | 0.00 | 54 | 1014.7 |
| 20260504015527 | 42 | 60 | 2.6 | 2.6 | 0.00 | 0.00 | 0.00 | 53 | 1015.4 |
| 20260504015520 | 42 | 65 | 2.6 | 2.6 | 0.00 | 0.00 | 0.00 | 53 | 1015.4 |
| 20260504015039 | 42 | 58 | 1.7 | 2.6 | 0.00 | 0.00 | 0.00 | 52 | 1014.3 |
| 20260504014554 | 43 | 65 | 2.6 | 2.6 | 0.00 | 0.00 | 0.00 | 53 | 1015.4 |
| 20260504014524 | 42 | 63 | 2.6 | 2.6 | 0.00 | 0.00 | 0.00 | 52 | 1015.4 |
| 20260504014053 | 43 | 58 | 2.6 | 2.6 | 0.00 | 0.00 | 0.00 | 51 | 1014.3 |
| 20260504013714 | 43 | 64 | 2.6 | 2.6 | 0.00 | 0.00 | 0.00 | 50 | 1015.4 |
| 20260504013520 | 43 | 61 | 2.6 | 3.5 | 0.00 | 0.00 | 0.00 | 51 | 1015.4 |
| 20260504013133 | 43 | 63 | 2.6 | 2.6 | 0.00 | 0.00 | 0.00 | 51 | 1014.3 |
| 20260504012618 | 43 | 56 | 2.6 | 3.5 | 0.00 | 0.00 | 0.00 | 50 | 1015.4 |
| 20260504012525 | 43 | 61 | 2.6 | 3.5 | 0.00 | 0.00 | 0.00 | 50 | 1015.4 |
| 20260504012057 | 43 | 51 | 2.6 | 2.6 | 0.00 | 0.00 | 0.00 | 50 | 1014.7 |
| 20260504011636 | 43 | 47 | 1.7 | 2.6 | 0.00 | 0.00 | 0.00 | 50 | 1015.4 |
| 20260504011542 | 43 | 49 | 1.7 | 2.6 | 0.00 | 0.00 | 0.00 | 50 | 1015.4 |
| 20260504011042 | 43 | 54 | 1.7 | 2.6 | 0.00 | 0.00 | 0.00 | 50 | 1014.3 |
| 20260504010610 | 43 | 55 | 2.6 | 2.6 | 0.00 | 0.00 | 0.00 | 49 | 1015.0 |
| 20260504010526 | 43 | 46 | 1.7 | 2.6 | 0.00 | 0.00 | 0.00 | 49 | 1015.4 |
| 20260504010020 | 43 | 54 | 1.7 | 2.6 | 0.00 | 0.00 | 0.00 | 49 | 1014.3 |
| 20260504005549 | 43 | 65 | 2.6 | 2.6 | 0.00 | 0.00 | 0.00 | 48 | 1015.4 |
| 20260504005025 | 44 | 61 | 1.7 | 2.6 | 0.00 | 0.00 | 0.00 | 47 | 1014.3 |
| 20260504004612 | 44 | 55 | 1.7 | 2.6 | 0.00 | 0.00 | 0.00 | 47 | 1015.0 |
| 20260504004554 | 44 | 61 | 1.7 | 3.5 | 0.00 | 0.00 | 0.00 | 47 | 1015.4 |
| 20260504004041 | 44 | 52 | 1.7 | 2.6 | 0.00 | 0.00 | 0.00 | 46 | 1014.3 |
| 20260504003643 | 45 | 58 | 1.7 | 3.5 | 0.00 | 0.00 | 0.00 | 45 | 1015.0 |
| 20260504003533 | 45 | 60 | 2.6 | 4.3 | 0.00 | 0.00 | 0.00 | 45 | 1015.4 |
| 20260504003027 | 45 | 52 | 2.6 | 4.3 | 0.00 | 0.00 | 0.00 | 45 | 1014.3 |
| 20260504002723 | 45 | 21 | 2.6 | 4.3 | 0.00 | 0.00 | 0.00 | 45 | 1015.0 |
| 20260504002529 | 45 | 31 | 2.6 | 4.3 | 0.00 | 0.00 | 0.00 | 45 | 1015.0 |
| 20260504002023 | 45 | 51 | 2.6 | 4.3 | 0.00 | 0.00 | 0.00 | 45 | 1014.3 |
| 20260504001545 | 45 | 65 | 2.6 | 3.5 | 0.00 | 0.00 | 0.00 | 45 | 1015.0 |
| 20260504001534 | 45 | 36 | 2.6 | 5.2 | 0.00 | 0.00 | 0.00 | 45 | 1015.0 |
| 20260504001150 | 45 | 56 | 2.6 | 4.3 | 0.00 | 0.00 | 0.00 | 46 | 1014.3 |
| 20260504000539 | 46 | 13 | 2.6 | 3.5 | 0.00 | 0.00 | 0.00 | 44 | 1015.0 |
| 20260504000521 | 46 | 28 | 2.6 | 3.5 | 0.00 | 0.00 | 0.00 | 44 | 1015.0 |
| 20260504000041 | 46 | 17 | 3.5 | 5.2 | 0.00 | 0.00 | 0.00 | 44 | 1014.0 |
| 20260503235610 | 46 | 2 | 3.5 | 4.3 | 0.00 | 0.00 | 0.00 | 43 | 1015.0 |
| 20260503235555 | 46 | 12 | 3.5 | 4.3 | 0.00 | 0.00 | 0.00 | 43 | 1015.0 |
| 20260503235029 | 47 | 20 | 1.7 | 4.3 | 0.00 | 0.00 | 0.00 | 43 | 1014.0 |
| 20260503234615 | 47 | 8 | 1.7 | 3.5 | 0.00 | 0.00 | 0.00 | 42 | 1015.0 |
| 20260503234523 | 47 | 6 | 2.6 | 5.2 | 0.00 | 0.00 | 0.00 | 42 | 1015.0 |
| 20260503234026 | 47 | 12 | 2.6 | 6.1 | 0.00 | 0.00 | 0.00 | 42 | 1014.0 |
| 20260503233554 | 47 | 336 | 3.5 | 5.2 | 0.00 | 0.00 | 0.00 | 41 | 1015.0 |
| 20260503233519 | 47 | 350 | 3.5 | 5.2 | 0.00 | 0.00 | 0.00 | 41 | 1015.0 |
| 20260503233021 | 47 | 336 | 5.2 | 10.4 | 0.00 | 0.00 | 0.00 | 41 | 1014.0 |
| 20260503232550 | 48 | 333 | 5.2 | 9.6 | 0.00 | 0.00 | 0.00 | 41 | 1014.7 |
| 20260503232533 | 48 | 342 | 5.2 | 11.3 | 0.00 | 0.00 | 0.00 | 41 | 1014.7 |
| 20260503232027 | 48 | 0 | 3.5 | 5.2 | 0.00 | 0.00 | 0.00 | 41 | 1014.0 |
| 20260503231656 | 48 | 336 | 5.2 | 7.0 | 0.00 | 0.00 | 0.00 | 41 | 1014.7 |
| 20260503231521 | 48 | 339 | 5.2 | 8.7 | 0.00 | 0.00 | 0.00 | 41 | 1014.7 |
| 20260503231040 | 48 | 331 | 7.0 | 12.2 | 0.00 | 0.00 | 0.00 | 40 | 1014.0 |
| 20260503230739 | 48 | 344 | 4.3 | 9.6 | 0.00 | 0.00 | 0.00 | 41 | 1014.7 |
| 20260503230525 | 48 | 330 | 7.8 | 15.6 | 0.00 | 0.00 | 0.00 | 41 | 1014.7 |
| 20260503230019 | 48 | 327 | 7.0 | 12.2 | 0.00 | 0.00 | 0.00 | 41 | 1014.0 |
| 20260503225548 | 48 | 329 | 5.2 | 10.4 | 0.00 | 0.00 | 0.00 | 41 | 1014.7 |
| 20260503225530 | 48 | 328 | 7.8 | 18.2 | 0.00 | 0.00 | 0.00 | 41 | 1015.0 |
| 20260503225024 | 48 | 330 | 7.0 | 13.0 | 0.00 | 0.00 | 0.00 | 40 | 1014.0 |
| 20260503224535 | 49 | 329 | 6.1 | 11.3 | 0.00 | 0.00 | 0.00 | 39 | 1014.7 |
| 20260503224527 | 49 | 342 | 4.3 | 7.0 | 0.00 | 0.00 | 0.00 | 40 | 1014.7 |
| 20260503224020 | 50 | 334 | 6.1 | 11.3 | 0.00 | 0.00 | 0.00 | 39 | 1014.0 |
| 20260503223618 | 49 | 324 | 7.0 | 12.2 | 0.00 | 0.00 | 0.00 | 40 | 1014.7 |
| 20260503223531 | 49 | 326 | 7.0 | 12.2 | 0.00 | 0.00 | 0.00 | 40 | 1014.7 |
| 20260503223045 | 50 | 334 | 5.2 | 11.3 | 0.00 | 0.00 | 0.00 | 40 | 1013.7 |
| 20260503222540 | 49 | 325 | 7.8 | 13.0 | 0.00 | 0.00 | 0.00 | 40 | 1014.7 |
| 20260503222527 | 49 | 333 | 5.2 | 11.3 | 0.00 | 0.00 | 0.00 | 40 | 1014.7 |
| 20260503222021 | 50 | 320 | 7.8 | 14.8 | 0.00 | 0.00 | 0.00 | 40 | 1013.7 |
| 20260503221616 | 50 | 14 | 6.1 | 7.8 | 0.00 | 0.00 | 0.00 | 38 | 1014.7 |
| 20260503221533 | 50 | 349 | 5.2 | 10.4 | 0.00 | 0.00 | 0.00 | 39 | 1014.7 |
| 20260503221026 | 50 | 342 | 5.2 | 11.3 | 0.00 | 0.00 | 0.00 | 39 | 1013.7 |
| 20260503220842 | 51 | 331 | 7.0 | 12.2 | 0.00 | 0.00 | 0.00 | 38 | 1014.3 |
| 20260503220520 | 51 | 341 | 5.2 | 10.4 | 0.00 | 0.00 | 0.00 | 38 | 1014.7 |
| 20260503220106 | 51 | 354 | 5.2 | 10.4 | 0.00 | 0.00 | 0.00 | 38 | 1013.7 |
| 20260503215618 | 52 | 355 | 3.5 | 5.2 | 0.00 | 0.00 | 0.00 | 38 | 1014.3 |
| 20260503215534 | 52 | 348 | 4.3 | 8.7 | 0.00 | 0.00 | 0.00 | 38 | 1014.7 |
| 20260503215045 | 51 | 342 | 4.3 | 7.0 | 0.00 | 0.00 | 0.00 | 38 | 1013.7 |
| 20260503214530 | 50 | 328 | 6.1 | 12.2 | 0.00 | 0.00 | 0.00 | 39 | 1014.7 |
| 20260503214024 | 48 | 325 | 7.0 | 11.3 | 0.00 | 0.00 | 0.00 | 41 | 1013.7 |
| 20260503213711 | 49 | 338 | 6.1 | 9.6 | 0.00 | 0.00 | 0.00 | 40 | 1014.7 |
| 20260503213526 | 49 | 331 | 7.0 | 14.8 | 0.00 | 0.00 | 0.00 | 39 | 1014.7 |
| 20260503213029 | 50 | 331 | 6.1 | 10.4 | 0.00 | 0.00 | 0.00 | 39 | 1013.7 |
| 20260503212543 | 50 | 349 | 4.3 | 5.2 | 0.00 | 0.00 | 0.00 | 40 | 1014.7 |
| 20260503212025 | 50 | 334 | 5.2 | 8.7 | 0.00 | 0.00 | 0.00 | 39 | 1013.7 |
| 20260503211629 | 50 | 327 | 8.7 | 15.6 | 0.00 | 0.00 | 0.00 | 39 | 1014.7 |
| 20260503211528 | 50 | 327 | 7.8 | 14.8 | 0.00 | 0.00 | 0.00 | 39 | 1014.7 |
| 20260503211030 | 50 | 328 | 5.2 | 13.9 | 0.00 | 0.00 | 0.00 | 39 | 1014.0 |
| 20260503210651 | 50 | 327 | 7.0 | 13.0 | 0.00 | 0.00 | 0.00 | 39 | 1014.7 |
| 20260503210533 | 50 | 329 | 6.1 | 13.0 | 0.00 | 0.00 | 0.00 | 39 | 1014.7 |
| 20260503210044 | 50 | 348 | 4.3 | 7.0 | 0.00 | 0.00 | 0.00 | 41 | 1014.0 |
| 20260503205723 | 49 | 333 | 4.3 | 6.1 | 0.00 | 0.00 | 0.00 | 42 | 1014.7 |
| 20260503205558 | 49 | 331 | 5.2 | 10.4 | 0.00 | 0.00 | 0.00 | 41 | 1014.7 |
| 20260503205049 | 49 | 330 | 6.1 | 10.4 | 0.00 | 0.00 | 0.00 | 41 | 1014.0 |
| 20260503204534 | 49 | 333 | 5.2 | 10.4 | 0.00 | 0.00 | 0.00 | 40 | 1014.7 |
| 20260503204112 | 50 | 322 | 7.0 | 10.4 | 0.00 | 0.00 | 0.00 | 39 | 1013.7 |
| 20260503203605 | 49 | 326 | 5.2 | 5.2 | 0.00 | 0.00 | 0.00 | 39 | 1014.7 |
| 20260503203521 | 50 | 327 | 7.0 | 13.9 | 0.00 | 0.00 | 0.00 | 39 | 1014.7 |
| 20260503203032 | 50 | 312 | 9.6 | 18.2 | 0.00 | 0.00 | 0.00 | 39 | 1014.0 |
| 20260503202747 | 50 | 318 | 9.6 | 14.8 | 0.00 | 0.00 | 0.00 | 38 | 1014.7 |
| 20260503202602 | 50 | 322 | 9.6 | 13.9 | 0.00 | 0.00 | 0.00 | 38 | 1014.7 |
| 20260503202021 | 50 | 319 | 9.6 | 14.8 | 0.00 | 0.00 | 0.00 | 38 | 1013.7 |
| 20260503201641 | 51 | 320 | 7.8 | 9.6 | 0.00 | 0.00 | 0.00 | 38 | 1014.7 |
| 20260503201523 | 51 | 321 | 8.7 | 12.2 | 0.00 | 0.00 | 0.00 | 38 | 1014.7 |
| 20260503201025 | 50 | 324 | 7.0 | 13.9 | 0.00 | 0.00 | 0.00 | 39 | 1013.7 |
| 20260503200617 | 50 | 332 | 5.2 | 9.6 | 0.00 | 0.00 | 0.00 | 39 | 1014.7 |
| 20260503200545 | 50 | 332 | 5.2 | 8.7 | 0.00 | 0.00 | 0.00 | 39 | 1014.7 |
| 20260503200021 | 50 | 345 | 4.3 | 7.0 | 0.00 | 0.00 | 0.00 | 39 | 1014.0 |
| 20260503195607 | 50 | 308 | 7.0 | 10.4 | 0.00 | 0.00 | 0.00 | 38 | 1014.7 |
| 20260503195544 | 49 | 317 | 7.8 | 11.3 | 0.00 | 0.00 | 0.00 | 38 | 1014.7 |
| 20260503195027 | 49 | 322 | 7.8 | 14.8 | 0.00 | 0.00 | 0.00 | 39 | 1013.7 |
| 20260503194928 | 50 | 321 | 7.0 | 8.7 | 0.00 | 0.00 | 0.00 | 39 | 1014.7 |
| 20260503194520 | 50 | 328 | 6.1 | 12.2 | 0.00 | 0.00 | 0.00 | 40 | 1014.7 |
| 20260503194032 | 50 | 322 | 7.8 | 16.5 | 0.00 | 0.00 | 0.00 | 40 | 1013.7 |
| 20260503193543 | 50 | 316 | 9.6 | 12.2 | 0.00 | 0.00 | 0.00 | 39 | 1014.7 |
| 20260503193525 | 49 | 315 | 7.0 | 15.6 | 0.00 | 0.00 | 0.00 | 39 | 1014.7 |
| 20260503193048 | 50 | 326 | 7.0 | 13.0 | 0.00 | 0.00 | 0.00 | 39 | 1013.7 |
| 20260503192706 | 49 | 320 | 4.3 | 7.8 | 0.00 | 0.00 | 0.00 | 40 | 1014.7 |
| 20260503192541 | 50 | 321 | 7.0 | 11.3 | 0.00 | 0.00 | 0.00 | 40 | 1014.7 |
| 20260503192024 | 50 | 310 | 8.7 | 15.6 | 0.00 | 0.00 | 0.00 | 39 | 1013.7 |
| 20260503191645 | 50 | 332 | 6.1 | 7.8 | 0.00 | 0.00 | 0.00 | 39 | 1014.7 |
| 20260503191555 | 50 | 329 | 7.0 | 16.5 | 0.00 | 0.00 | 0.00 | 39 | 1014.7 |
| 20260503191020 | 49 | 325 | 7.0 | 11.3 | 0.00 | 0.00 | 0.00 | 39 | 1013.7 |
| 20260503190558 | 49 | 318 | 9.6 | 10.4 | 0.00 | 0.00 | 0.00 | 39 | 1014.7 |
| 20260503190544 | 49 | 321 | 8.7 | 14.8 | 0.00 | 0.00 | 0.00 | 38 | 1014.7 |
| 20260503190034 | 50 | 324 | 7.8 | 12.2 | 0.00 | 0.00 | 0.00 | 39 | 1014.0 |
| 20260503185528 | 50 | 310 | 7.8 | 16.5 | 0.00 | 0.00 | 0.00 | 39 | 1014.7 |
| 20260503185520 | 50 | 315 | 8.7 | 12.2 | 0.00 | 0.00 | 0.00 | 39 | 1014.7 |
| 20260503185108 | 50 | 303 | 10.4 | 15.6 | 0.00 | 0.00 | 0.00 | 38 | 1013.7 |
| 20260503184559 | 50 | 319 | 7.8 | 12.2 | 0.00 | 0.00 | 0.00 | 39 | 1014.7 |
| 20260503184541 | 50 | 309 | 8.7 | 13.9 | 0.00 | 0.00 | 0.00 | 39 | 1014.7 |
| 20260503184026 | 50 | 316 | 9.6 | 16.5 | 0.00 | 0.00 | 0.00 | 40 | 1013.7 |
| 20260503183540 | 49 | 310 | 9.6 | 14.8 | 0.00 | 0.00 | 0.00 | 40 | 1014.7 |
| 20260503183520 | 49 | 305 | 11.3 | 14.8 | 0.00 | 0.00 | 0.00 | 40 | 1014.7 |
| 20260503183023 | 49 | 315 | 10.4 | 19.1 | 0.00 | 0.00 | 0.00 | 39 | 1014.0 |
| 20260503182814 | 50 | 318 | 8.7 | 10.4 | 0.00 | 0.00 | 0.00 | 39 | 1014.7 |
| 20260503182525 | 50 | 326 | 8.7 | 15.6 | 0.00 | 0.00 | 0.00 | 39 | 1015.0 |
| 20260503182019 | 51 | 315 | 7.0 | 13.0 | 0.00 | 0.00 | 0.00 | 39 | 1014.0 |
| 20260503181605 | 51 | 319 | 7.0 | 13.9 | 0.00 | 0.00 | 0.00 | 38 | 1015.0 |
| 20260503181540 | 51 | 308 | 7.0 | 13.0 | 0.00 | 0.00 | 0.00 | 38 | 1014.7 |
| 20260503181024 | 50 | 316 | 7.0 | 11.3 | 0.00 | 0.00 | 0.00 | 38 | 1014.0 |
| 20260503180610 | 50 | 309 | 11.3 | 15.6 | 0.00 | 0.00 | 0.00 | 39 | 1015.0 |
| 20260503180544 | 50 | 305 | 11.3 | 15.6 | 0.00 | 0.00 | 0.00 | 38 | 1015.0 |
| 20260503180020 | 50 | 309 | 8.7 | 13.9 | 0.00 | 0.00 | 0.00 | 40 | 1014.0 |
| 20260503175633 | 50 | 298 | 10.4 | 13.9 | 0.00 | 0.00 | 0.00 | 39 | 1015.0 |
| 20260503175549 | 50 | 295 | 10.4 | 13.0 | 0.00 | 0.00 | 0.00 | 39 | 1015.0 |
| 20260503175123 | 51 | 306 | 11.3 | 15.6 | 0.00 | 0.00 | 0.00 | 40 | 1014.0 |
| 20260503174559 | 50 | 294 | 10.4 | 13.0 | 0.00 | 0.00 | 0.00 | 39 | 1015.0 |
| 20260503174545 | 50 | 298 | 10.4 | 13.0 | 0.00 | 0.00 | 0.00 | 39 | 1015.0 |
| 20260503174050 | 50 | 296 | 10.4 | 13.9 | 0.00 | 0.00 | 0.00 | 40 | 1014.3 |